Location: Dodgeville
(42.9600°N, 90.1300°W)
Time: 09:00:31
(UTC-05:00)

Amateur Radio Satellites - All Passes

Search period start: 20 September 2014 08:30
Search period end: 21 September 2014 08:30
Location: Dodgeville, 42.9600°N, 90.1300°W

Satellite Date Start Highest point End Downlink Frequencies (MHz)
Time Altitude Azimuth
ISS 20 Sep 08:41:17 08:44:36 65° 31° (NNE) 08:47:55 145.800 FM
UOSAT-12 20 Sep 08:45:54 08:50:36 59° 52° (NE) 08:55:12 437.025 FM, 437.400 FM
SO-50 20 Sep 08:53:26 08:55:59 14° 252° (WSW) 08:58:31 436.795 FM
RS-15 20 Sep 08:55:03 09:03:21 24° 353° (N) 09:11:45 29.354 - 29.394 USB, Beacon 29.352 USB
MaSat-1 20 Sep 09:02:26 09:07:25 65° 299° (WNW) 09:12:18 437.345 MHz
SO-67 20 Sep 09:14:42 09:16:50 16° 293° (WNW) 09:18:58 435.3500 MHz FM
HO-68 20 Sep 09:22:13 09:28:42 35° 97° (E) 09:35:08 435.675 MHz FM
Oscar 11 20 Sep 09:45:12 09:47:51 16° 91° (E) 09:50:29 145.825 FM, Beacon 2401.500 USB
UKube-1 20 Sep 10:01:40 10:05:33 31° 97° (E) 10:09:25 145.840 MHz, 145.915 MHz
ISS 20 Sep 10:18:47 10:21:00 17° 227° (SW) 10:23:11 145.800 FM
UOSAT-12 20 Sep 10:27:09 10:30:17 18° 250° (WSW) 10:33:23 437.025 FM, 437.400 FM
MaSat-1 20 Sep 10:43:14 10:45:02 12° 317° (NW) 10:46:48 437.345 MHz
HO-68 20 Sep 11:09:44 11:16:32 48° 295° (WNW) 11:23:19 435.675 MHz FM
RS-15 20 Sep 11:10:54 11:20:26 32° 28° (NNE) 11:30:12 29.354 - 29.394 USB, Beacon 29.352 USB
FUNcube-1 20 Sep 11:11:40 11:16:15 57° 100° (E) 11:20:44 145.950 - 145.970 MHz USB
Oscar 11 20 Sep 11:20:07 11:24:19 48° 288° (WNW) 11:28:29 145.825 FM, Beacon 2401.500 USB
UKube-1 20 Sep 11:38:02 11:41:38 26° 293° (WNW) 11:45:13 145.840 MHz, 145.915 MHz
Sapphire 20 Sep 11:50:59 11:55:49 35° 111° (ESE) 12:00:41 437.095 MHz 1200 baud AX-25 AFSK
PCSat 20 Sep 12:17:19 12:22:38 63° 116° (ESE) 12:28:00 145.825 MHz
Oscar 16 20 Sep 12:26:28 12:30:07 20° 62° (ENE) 12:33:47 437.025 USB, Beacon 2401.1428
FUNcube-1 20 Sep 12:49:15 12:52:10 17° 297° (WNW) 12:55:03 145.950 - 145.970 MHz USB
ITAMSAT 1 20 Sep 13:11:23 13:15:13 21° 62° (ENE) 13:19:03 435.822 SSB
Uribyol 2 20 Sep 13:15:02 13:19:08 24° 64° (ENE) 13:23:14 436.500 FM
RS-15 20 Sep 13:23:32 13:34:42 82° 55° (NE) 13:46:18 29.354 - 29.394 USB, Beacon 29.352 USB
Oscar 19 20 Sep 13:24:53 13:30:00 61° 72° (ENE) 13:35:08 437.125 CW, 437.150 USB
JAS-1B 20 Sep 13:27:16 13:35:11 47° 68° (ENE) 13:41:52 435.800 - 435.900 CW/SSB
Sapphire 20 Sep 13:34:11 13:39:11 37° 309° (NW) 13:44:14 437.095 MHz 1200 baud AX-25 AFSK
TMSAT-1 20 Sep 13:42:06 13:45:02 15° 59° (ENE) 13:47:58 436.925 FM
AO-27 20 Sep 13:45:22 13:50:12 42° 69° (ENE) 13:55:04 436.795 MHz FM
PCSat 20 Sep 14:02:10 14:06:29 24° 316° (NW) 14:10:50 145.825 MHz
Oscar 16 20 Sep 14:03:54 14:09:01 58° 259° (W) 14:14:10 437.025 USB, Beacon 2401.1428
AO-Echo 20 Sep 14:10:09 14:14:53 79° 75° (ENE) 14:19:36 ?
AO-7 20 Sep 14:33:29 14:39:38 24° 51° (NE) 14:45:46 29.400 - 29.500 MHz
Gurwin Techsat 1B 20 Sep 14:42:35 14:47:49 67° 73° (ENE) 14:53:06 435.225 FM
ITAMSAT 1 20 Sep 14:49:18 14:54:19 52° 260° (W) 14:59:24 435.822 SSB
Uribyol 2 20 Sep 14:53:24 14:58:19 45° 261° (W) 15:03:18 436.500 FM
Oscar 19 20 Sep 15:06:24 15:09:45 17° 269° (W) 15:13:07 437.125 CW, 437.150 USB
JAS-1B 20 Sep 15:17:57 15:25:47 39° 262° (W) 15:32:30 435.800 - 435.900 CW/SSB
TMSAT-1 20 Sep 15:18:59 15:24:16 80° 256° (WSW) 15:29:36 436.925 FM
Uosat F 20 Sep 15:22:11 15:25:54 22° 63° (ENE) 15:29:39 435.120 FM
AO-27 20 Sep 15:25:41 15:29:52 25° 266° (W) 15:34:05 436.795 MHz FM
RS-15 20 Sep 15:37:05 15:45:52 28° 257° (WSW) 15:54:59 29.354 - 29.394 USB, Beacon 29.352 USB
AO-Echo 20 Sep 15:53:05 15:54:14 11° 271° (W) 15:55:24 ?
AO-7 20 Sep 16:23:06 16:31:26 87° 252° (WSW) 16:39:48 29.400 - 29.500 MHz
Gurwin Techsat 1B 20 Sep 16:25:03 16:28:16 16° 270° (W) 16:31:30 435.225 FM
OPAL 20 Sep 16:28:12 16:29:00 10° 89° (E) 16:29:48 ?
JAS-2 20 Sep 16:44:32 16:48:06 19° 61° (ENE) 16:51:42 435.800 - 435.900 CW/SSB, 435.910 FM
Uosat F 20 Sep 16:59:32 17:04:21 49° 260° (W) 17:09:13 435.120 FM
MaSat-1 20 Sep 17:18:39 17:22:08 30° 54° (NE) 17:25:10 437.345 MHz
Saudisat 1A 20 Sep 17:19:27 17:23:49 69° 121° (ESE) 17:28:13 436.775 MHz
Hamsat 20 Sep 17:27:10 17:31:06 35° 70° (ENE) 17:35:04 145.90 MHz
KITSAT 1 20 Sep 17:58:43 18:03:35 17° 101° (E) 18:08:26 435.175 FM
OPAL 20 Sep 18:03:25 18:08:37 87° 106° (ESE) 18:13:43 ?
SO-67 20 Sep 18:16:06 18:17:49 13° 66° (ENE) 18:19:32 435.3500 MHz FM
AO-7 20 Sep 18:20:01 18:25:17 18° 270° (W) 18:30:35 29.400 - 29.500 MHz
JAS-2 20 Sep 18:27:42 18:32:50 54° 260° (W) 18:37:56 435.800 - 435.900 CW/SSB, 435.910 FM
STRAND 1 20 Sep 18:47:02 18:50:30 18° 92° (E) 18:53:56 ?
MaSat-1 20 Sep 18:56:01 18:58:31 18° 257° (WSW) 19:00:48 437.345 MHz
Saudisat 1A 20 Sep 19:00:46 19:03:51 18° 320° (NW) 19:06:58 436.775 MHz
Hamsat 20 Sep 19:03:44 19:07:08 22° 267° (W) 19:10:33 145.90 MHz
PCSat 20 Sep 19:22:36 19:25:10 13° 35° (NE) 19:27:45 145.825 MHz
OPAL 20 Sep 19:44:08 19:46:45 14° 304° (NW) 19:49:22 ?
SO-67 20 Sep 19:47:17 19:50:31 37° 262° (W) 19:53:46 435.3500 MHz FM
KITSAT 1 20 Sep 19:49:41 19:57:47 84° 120° (ESE) 20:05:55 435.175 FM
HO-68 20 Sep 19:52:16 19:58:16 30° 59° (ENE) 20:04:17 435.675 MHz FM
STRAND 1 20 Sep 20:25:00 20:30:03 58° 288° (WNW) 20:35:04 ?
Sapphire 20 Sep 20:37:38 20:42:38 36° 50° (NE) 20:47:37 437.095 MHz 1200 baud AX-25 AFSK
Oscar 11 20 Sep 20:41:41 20:44:13 15° 63° (ENE) 20:46:45 145.825 FM, Beacon 2401.500 USB
UKube-1 20 Sep 20:58:08 21:01:55 31° 68° (ENE) 21:05:44 145.840 MHz, 145.915 MHz
PCSat 20 Sep 21:04:22 21:09:45 60° 56° (ENE) 21:15:06 145.825 MHz
SO-50 20 Sep 21:28:27 21:31:35 19° 111° (ESE) 21:34:45 436.795 FM
HO-68 20 Sep 21:38:35 21:45:34 58° 258° (WSW) 21:52:37 435.675 MHz FM
KITSAT 1 20 Sep 21:47:19 21:54:09 29° 322° (NW) 22:01:00 435.175 FM
FUNcube-1 20 Sep 22:08:46 22:13:02 49° 72° (ENE) 22:17:25 145.950 - 145.970 MHz USB
Oscar 11 20 Sep 22:15:39 22:19:56 56° 260° (W) 22:24:15 145.825 FM, Beacon 2401.500 USB
Sapphire 20 Sep 22:21:07 22:26:03 36° 249° (WSW) 22:30:57 437.095 MHz 1200 baud AX-25 AFSK
UKube-1 20 Sep 22:34:33 22:38:07 25° 265° (W) 22:41:43 145.840 MHz, 145.915 MHz
PCSat 20 Sep 22:48:49 22:52:41 20° 254° (WSW) 22:56:32 145.825 MHz
UOSAT-12 20 Sep 23:00:16 23:02:35 14° 108° (ESE) 23:04:56 437.025 FM, 437.400 FM
SO-50 20 Sep 23:07:20 23:11:43 52° 309° (NW) 23:16:15 436.795 FM
FUNcube-1 20 Sep 23:46:56 23:49:43 16° 269° (W) 23:52:34 145.950 - 145.970 MHz USB
KITSAT 1 20 Sep 23:49:04 23:52:50 14° 351° (N) 23:56:36 435.175 FM
Saudisat 1A 21 Sep 00:07:20 00:09:24 13° 34° (NE) 00:11:27 436.775 MHz
UOSAT-12 21 Sep 00:37:29 00:42:07 73° 305° (NW) 00:46:51 437.025 FM, 437.400 FM
Oscar 10/S400 21 Sep 00:51:22 01:50:29 44° 217° (SW) 07:43:47 145.825 - 145.975 CW/USB, Beacon 145.810 USB
SO-50 21 Sep 00:52:00 00:53:24 11° 330° (NNW) 00:54:48 436.795 FM
ISS 21 Sep 01:26:00 01:27:28 12° 131° (SE) 01:28:57 145.800 FM
Oscar 19 21 Sep 01:36:33 01:40:19 20° 92° (E) 01:44:02 437.125 CW, 437.150 USB
Saudisat 1A 21 Sep 01:45:21 01:49:47 71° 54° (NE) 01:54:11 436.775 MHz
KITSAT 1 21 Sep 01:47:07 01:52:16 18° 23° (NNE) 01:57:24 435.175 FM
AO-27 21 Sep 01:59:00 02:01:38 14° 89° (E) 02:04:16 436.795 MHz FM
Oscar 16 21 Sep 02:14:45 02:19:45 46° 99° (E) 02:24:41 437.025 USB, Beacon 2401.1428
AO-Echo 21 Sep 02:16:41 02:20:33 23° 94° (E) 02:24:30 ?
UOSAT-12 21 Sep 02:20:32 02:23:07 15° 326° (NW) 02:25:43 437.025 FM, 437.400 FM
Gurwin Techsat 1B 21 Sep 02:58:30 03:02:49 25° 94° (E) 03:07:06 435.225 FM
ISS 21 Sep 03:00:24 03:03:44 85° 328° (NNW) 03:07:04 145.800 FM
ITAMSAT 1 21 Sep 03:01:06 03:06:12 52° 100° (E) 03:11:17 435.822 SSB
JAS-1B 21 Sep 03:01:46 03:07:26 58° 101° (E) 03:13:05 435.800 - 435.900 CW/SSB
Uribyol 2 21 Sep 03:04:53 03:10:04 60° 101° (ESE) 03:15:13 436.500 FM
Oscar 19 21 Sep 03:14:56 03:19:57 52° 289° (WNW) 03:24:55 437.125 CW, 437.150 USB
Saudisat 1A 21 Sep 03:26:44 03:28:47 13° 251° (WSW) 03:30:50 436.775 MHz
TMSAT-1 21 Sep 03:34:08 03:39:05 38° 97° (E) 03:44:00 436.925 FM
AO-27 21 Sep 03:36:29 03:41:42 75° 286° (WNW) 03:46:55 436.795 MHz FM
OPAL 21 Sep 03:41:46 03:45:51 24° 61° (ENE) 03:49:58 ?
KITSAT 1 21 Sep 03:42:07 03:49:55 49° 49° (NE) 03:57:40 435.175 FM
RS-15 21 Sep 03:48:17 03:58:37 48° 111° (ESE) 04:08:48 29.354 - 29.394 USB, Beacon 29.352 USB
Oscar 16 21 Sep 03:54:45 03:58:48 24° 296° (WNW) 04:02:49 437.025 USB, Beacon 2401.1428
AO-Echo 21 Sep 03:54:55 03:59:27 41° 290° (WNW) 04:04:06 ?
AO-7 21 Sep 04:24:20 04:31:21 30° 95° (E) 04:38:19 29.400 - 29.500 MHz
Gurwin Techsat 1B 21 Sep 04:37:56 04:42:57 44° 291° (WNW) 04:47:58 435.225 FM
ISS 21 Sep 04:38:05 04:40:49 23° 346° (NNW) 04:43:33 145.800 FM
ITAMSAT 1 21 Sep 04:41:25 04:45:20 22° 297° (WNW) 04:49:14 435.822 SSB
Uribyol 2 21 Sep 04:45:26 04:49:04 19° 299° (WNW) 04:52:42 436.500 FM
JAS-1B 21 Sep 04:53:37 04:57:40 20° 301° (WNW) 05:01:39 435.800 - 435.900 CW/SSB
Uosat F 21 Sep 05:06:08 05:11:00 47° 100° (E) 05:15:50 435.120 FM
TMSAT-1 21 Sep 05:14:20 05:18:51 29° 294° (WNW) 05:23:21 436.925 FM
AO-27 21 Sep 05:19:00 05:20:19 11° 304° (NW) 05:21:38 436.795 MHz FM
OPAL 21 Sep 05:19:25 05:24:25 48° 258° (WSW) 05:29:29 ?
JAS-2 21 Sep 05:34:49 05:39:05 19° 92° (E) 05:43:39 435.800 - 435.900 CW/SSB, 435.910 FM
KITSAT 1 21 Sep 05:37:46 05:45:14 43° 249° (WSW) 05:52:40 435.175 FM
SO-50 21 Sep 05:57:49 06:01:55 27° 44° (NE) 06:06:04 436.795 FM
RS-15 21 Sep 06:00:05 06:10:48 55° 314° (NW) 06:21:32 29.354 - 29.394 USB, Beacon 29.352 USB
STRAND 1 21 Sep 06:03:39 06:07:59 29° 66° (ENE) 06:12:20 ?
ISS 21 Sep 06:15:53 06:18:21 19° 6° (N) 06:20:48 145.800 FM
AO-7 21 Sep 06:16:28 06:24:37 64° 294° (WNW) 06:32:45 29.400 - 29.500 MHz
Uosat F 21 Sep 06:45:37 06:49:28 23° 297° (WNW) 06:53:19 435.120 FM
Hamsat 21 Sep 06:47:29 06:51:43 62° 101° (E) 06:55:52 145.90 MHz
MaSat-1 21 Sep 07:06:13 07:08:49 14° 101° (ESE) 07:11:24 437.345 MHz
SO-67 21 Sep 07:11:09 07:12:51 13° 91° (E) 07:14:32 435.3500 MHz FM
JAS-2 21 Sep 07:18:30 07:24:32 74° 286° (WNW) 07:31:23 435.800 - 435.900 CW/SSB, 435.910 FM
UOSAT-12 21 Sep 07:26:58 07:30:31 21° 40° (NE) 07:34:03 437.025 FM, 437.400 FM
SO-50 21 Sep 07:38:04 07:42:41 46° 242° (WSW) 07:47:19 436.795 FM
STRAND 1 21 Sep 07:42:24 07:47:03 36° 263° (W) 07:51:44 ?
ISS 21 Sep 07:52:29 07:55:41 42° 26° (NNE) 07:58:52 145.800 FM
AO-7 21 Sep 08:11:20 08:15:50 16° 315° (NW) 08:20:20 29.400 - 29.500 MHz
Hamsat 21 Sep 08:25:08 08:27:09 13° 298° (WNW) 08:29:08 145.90 MHz
